カタリナ彗星

C/2006 V1 ( Catalina )

English version
Home page
Updated on October 15, 2008

---------------------------------------------------------------------

・ プロフィール

発見日 2006年11月11日
発見光度 18.5等
発見者 Catalina Sky Survey

・ 写真集

・ 軌道要素

The following orbital elements are taken from MPC 62580:

Epoch 2007 Dec. 6.0 TT = JDT 2454440.5
T 2007 Nov. 26.5460 TT                                  MPC
q   2.674769             (2000.0)            P               Q
z  +0.003833       Peri.  253.4140      -0.5975599      +0.7731534
 +/-0.000002       Node   335.7219      -0.3814838      -0.5072390
e   0.989749       Incl.   31.1193      -0.7052604      -0.3807132
From 612 observations 2006 Nov. 11-2008 Apr. 5, mean residual 0".6.

・ 星図

・ 光度変化

        m1 = 8.2 + 5 logΔ + 10.0 log r

---------------------------------------------------------------------

軌道要素はMPCのEphemerides and Orbital Elementsに掲載されたものです。
星図は StellaNavigator Ver.2.0 for Windows (アストロアーツ 編著 / アスキー出版局刊) で作成したものです。
光度グラフはComet for Windowsで作成したものです。

---------------------------------------------------------------------

Copyright(C) Seiichi Yoshida (comet@aerith.net). All rights reserved.